Regional Weather Roundup
Issued by NWS

Home | Current Version | Previous Version | Graphics & Text | Print | Product List | Glossary On
Versions: 1 2 3 4 5 6 7 8 9 10 11 12 13 14 15 16 17 18 19 20 21 22 23 24 25 26 27 28 29 30 31 32 33 34 35 36 37 38 39 40 41 42 43 44 45 46 47 48 49 50
000
ASUS43 KBIS 071902
RWRND

NORTH DAKOTA REGIONAL WEATHER ROUNDUP
NATIONAL WEATHER SERVICE BISMARCK ND
200 PM CDT TUE JUL 07 2015

NOTE: "FAIR" INDICATES FEW OR NO CLOUDS BELOW 12,000 FEET WITH NO
SIGNIFICANT WEATHER AND/OR OBSTRUCTIONS TO VISIBILITY.


NDZ001>003-009>011-017-072000-
NORTHWEST NORTH DAKOTA

CITY           SKY/WX    TMP DP  RH WIND       PRES   REMARKS
WILLISTON      MOSUNNY   79  48  33 S8        30.03F
MINOT          PTSUNNY   71  51  49 S15       30.06F
$$

NDZ018>021-031>035-040>046-072000-
SOUTHWEST NORTH DAKOTA

CITY           SKY/WX    TMP DP  RH WIND       PRES   REMARKS
BISMARCK       MOSUNNY   72  56  57 SE15      30.10F
DICKINSON      PTSUNNY   74  58  57 SE15      30.05F
GARRISON         N/A     70  56  61 S9G17     30.07F
HETTINGER ARPT MOSUNNY   74  57  55 SE15G23   30.07F
$$

NDZ004>008-012>016-024-026-027-054-072000-
NORTHEAST NORTH DAKOTA

CITY           SKY/WX    TMP DP  RH WIND       PRES   REMARKS
GRAND FORKS    MOSUNNY   69  45  41 VRB6      30.12F
GRND FRKS AFB  SUNNY     71  46  41 SW6       30.13F
DEVILS LAKE    SUNNY     70  46  43 S9        30.09F
$$

NDZ022-023-025-028>030-036>039-047>053-072000-
SOUTHEAST NORTH DAKOTA

CITY           SKY/WX    TMP DP  RH WIND       PRES   REMARKS
FARGO          SUNNY     71  44  37 S10       30.15F
JAMESTOWN      SUNNY     71  45  39 S10       30.13F
$$




USA.gov is the U.S. government's official web portal to all federal, state and local government web resources and services.